| time (UTC) | temp C | wind direction | speed KPH | gust KPH | rain 1hr cm | rain 24hr cm | rain mn cm | humidity % | barometer mb |
| 20260906174259 | 25 | 0 | 0.0 | 6.4 | 0.00 | 0.00 | 0.00 | 80 | 1017.3 |
| 20260906173757 | 25 | 0 | 0.0 | 6.4 | 0.00 | 0.00 | 0.00 | 80 | 1017.4 |
| 20260906173257 | 24 | 337 | 3.2 | 4.8 | 0.00 | 0.00 | 0.00 | 82 | 1017.4 |
| 20260906172757 | 24 | 0 | 0.0 | 9.7 | 0.00 | 0.00 | 0.00 | 81 | 1017.2 |
| 20260906172259 | 24 | 0 | 0.0 | 9.7 | 0.00 | 0.00 | 0.00 | 81 | 1017.4 |
| 20260906171757 | 23 | 0 | 0.0 | 4.8 | 0.00 | 0.00 | 0.00 | 82 | 1017.4 |
| 20260906171259 | 24 | 0 | 0.0 | 1.6 | 0.00 | 0.00 | 0.00 | 82 | 1017.5 |
| 20260906170757 | 24 | 0 | 0.0 | 1.6 | 0.00 | 0.00 | 0.00 | 83 | 1017.5 |
| 20260906170257 | 23 | 0 | 0.0 | 0.0 | 0.00 | 0.00 | 0.00 | 83 | 1017.5 |
| 20260906165757 | 23 | 0 | 0.0 | 4.8 | 0.00 | 0.00 | 0.00 | 84 | 1017.5 |
| 20260906165257 | 23 | 0 | 0.0 | 4.8 | 0.00 | 0.00 | 0.00 | 83 | 1017.4 |
| 20260906164757 | 23 | 0 | 0.0 | 4.8 | 0.00 | 0.00 | 0.00 | 83 | 1017.4 |
| 20260906164403 | 23 | 0 | 0.0 | 0.0 | 0.00 | 0.00 | 0.00 | 85 | 1017.4 |
| 20260906164259 | 23 | 0 | 0.0 | 0.0 | 0.00 | 0.00 | 0.00 | 85 | 1017.4 |
| 20260906163803 | 22 | 0 | 0.0 | 0.0 | 0.00 | 0.00 | 0.00 | 88 | 1017.6 |
| 20260906163718 | 22 | 0 | 0.0 | 0.0 | 0.00 | 0.00 | 0.00 | 88 | 1017.6 |
| 20260906163153 | 22 | 0 | 0.0 | 0.0 | 0.00 | 0.00 | 0.00 | 88 | 1017.7 |
| 20260906162606 | 22 | 0 | 0.0 | 0.0 | 0.00 | 0.00 | 0.00 | 87 | 1017.8 |
| 20260906161605 | 22 | 0 | 0.0 | 4.8 | 0.00 | 0.00 | 0.00 | 87 | 1017.9 |
| 20260906161106 | 22 | 0 | 0.0 | 0.0 | 0.00 | 0.00 | 0.00 | 88 | 1017.8 |
| 20260906160606 | 22 | 0 | 0.0 | 0.0 | 0.00 | 0.00 | 0.00 | 88 | 1017.6 |
| 20260906160107 | 22 | 0 | 0.0 | 0.0 | 0.00 | 0.00 | 0.00 | 88 | 1017.6 |
| 20260906155606 | 22 | 0 | 0.0 | 0.0 | 0.00 | 0.00 | 0.00 | 89 | 1017.6 |
| 20260906155106 | 22 | 0 | 0.0 | 0.0 | 0.00 | 0.00 | 0.00 | 89 | 1017.6 |
| 20260906154606 | 22 | 0 | 0.0 | 0.0 | 0.00 | 0.00 | 0.00 | 89 | 1017.6 |
| 20260906154106 | 22 | 0 | 0.0 | 0.0 | 0.00 | 0.00 | 0.00 | 90 | 1017.6 |
| 20260906153606 | 21 | 0 | 0.0 | 0.0 | 0.00 | 0.00 | 0.00 | 90 | 1017.6 |
| 20260906153106 | 21 | 0 | 0.0 | 0.0 | 0.00 | 0.00 | 0.00 | 90 | 1017.6 |
| 20260906152606 | 22 | 0 | 0.0 | 4.8 | 0.00 | 0.00 | 0.00 | 89 | 1017.7 |
| 20260906152107 | 22 | 0 | 0.0 | 4.8 | 0.00 | 0.00 | 0.00 | 89 | 1017.6 |
| 20260906151607 | 22 | 0 | 0.0 | 1.6 | 0.00 | 0.00 | 0.00 | 89 | 1017.6 |
| 20260906151106 | 22 | 0 | 0.0 | 1.6 | 0.00 | 0.00 | 0.00 | 90 | 1017.6 |
| 20260906150606 | 21 | 0 | 0.0 | 0.0 | 0.00 | 0.00 | 0.00 | 92 | 1017.6 |
| 20260906150106 | 21 | 0 | 0.0 | 1.6 | 0.00 | 0.00 | 0.00 | 93 | 1017.5 |
| 20260906145606 | 21 | 0 | 0.0 | 4.8 | 0.00 | 0.00 | 0.00 | 93 | 1017.5 |
| 20260906145108 | 21 | 0 | 0.0 | 4.8 | 0.00 | 0.00 | 0.00 | 92 | 1017.5 |
| 20260906144606 | 21 | 0 | 0.0 | 0.0 | 0.00 | 0.00 | 0.00 | 93 | 1017.4 |
| 20260906144106 | 21 | 0 | 0.0 | 0.0 | 0.00 | 0.00 | 0.00 | 93 | 1017.5 |
| 20260906143606 | 21 | 0 | 0.0 | 0.0 | 0.00 | 0.00 | 0.00 | 92 | 1017.7 |
| 20260906142927 | 21 | 0 | 0.0 | 4.8 | 0.00 | 0.00 | 0.00 | 92 | 1017.6 |
| 20260906142436 | 21 | 0 | 0.0 | 4.8 | 0.00 | 0.00 | 0.00 | 92 | 1017.4 |
| 20260906141928 | 21 | 0 | 0.0 | 3.2 | 0.00 | 0.00 | 0.00 | 94 | 1017.4 |
| 20260906141428 | 21 | 0 | 0.0 | 0.0 | 0.00 | 0.00 | 0.00 | 94 | 1017.2 |
| 20260906141016 | 21 | 0 | 0.0 | 4.8 | 0.00 | 0.00 | 0.00 | 95 | 1017.3 |
| 20260906140928 | 21 | 0 | 0.0 | 4.8 | 0.00 | 0.00 | 0.00 | 95 | 1017.3 |
| 20260906140430 | 21 | 0 | 0.0 | 4.8 | 0.00 | 0.00 | 0.00 | 96 | 1017.4 |
| 20260906135900 | 21 | 0 | 0.0 | 1.6 | 0.00 | 0.00 | 0.00 | 97 | 1017.2 |
| 20260906135205 | 21 | 0 | 0.0 | 6.4 | 0.00 | 0.00 | 0.00 | 97 | 1017.2 |
| 20260906134705 | 21 | 0 | 0.0 | 8.0 | 0.00 | 0.00 | 0.00 | 97 | 1017.2 |
| 20260906134205 | 21 | 0 | 0.0 | 8.0 | 0.00 | 0.00 | 0.00 | 98 | 1017.1 |
| 20260906133705 | 21 | 0 | 0.0 | 0.0 | 0.00 | 0.00 | 0.00 | 98 | 1017.1 |
| 20260906133205 | 20 | 0 | 0.0 | 4.8 | 0.00 | 0.00 | 0.00 | 98 | 1017.1 |
| 20260906132705 | 20 | 0 | 0.0 | 4.8 | 0.00 | 0.00 | 0.00 | 99 | 1017.0 |
| 20260906132205 | 20 | 0 | 0.0 | 1.6 | 0.00 | 0.00 | 0.00 | 99 | 1016.8 |
| 20260906131705 | 20 | 0 | 0.0 | 1.6 | 0.00 | 0.00 | 0.00 | 99 | 1016.7 |
| 20260906131205 | 20 | 0 | 0.0 | 1.6 | 0.00 | 0.00 | 0.00 | 99 | 1016.7 |
| 20260906130705 | 20 | 0 | 0.0 | 1.6 | 0.00 | 0.00 | 0.00 | 98 | 1016.8 |
| 20260906130205 | 20 | 0 | 0.0 | 6.4 | 0.00 | 0.00 | 0.00 | 98 | 1016.6 |
| 20260906125705 | 20 | 0 | 0.0 | 6.4 | 0.00 | 0.00 | 0.00 | 98 | 1016.8 |
| 20260906125206 | 20 | 0 | 0.0 | 3.2 | 0.00 | 0.00 | 0.00 | 98 | 1016.6 |
| 20260906124706 | 20 | 0 | 0.0 | 4.8 | 0.00 | 0.00 | 0.00 | 98 | 1016.6 |
| 20260906124205 | 20 | 0 | 0.0 | 4.8 | 0.00 | 0.00 | 0.00 | 98 | 1016.6 |
| 20260906123705 | 20 | 0 | 0.0 | 1.6 | 0.00 | 0.00 | 0.00 | 98 | 1016.5 |
| 20260906123208 | 20 | 0 | 0.0 | 3.2 | 0.00 | 0.00 | 0.00 | 98 | 1016.4 |
| 20260906122707 | 20 | 0 | 0.0 | 3.2 | 0.00 | 0.00 | 0.00 | 99 | 1016.6 |
| 20260906122205 | 20 | 0 | 0.0 | 6.4 | 0.00 | 0.00 | 0.00 | 99 | 1016.6 |
| 20260906121705 | 20 | 337 | 1.6 | 6.4 | 0.00 | 0.00 | 0.00 | 99 | 1016.4 |
| 20260906121205 | 20 | 0 | 0.0 | 0.0 | 0.00 | 0.00 | 0.00 | 99 | 1016.4 |
| 20260906120707 | 20 | 0 | 0.0 | 4.8 | 0.00 | 0.00 | 0.00 | 99 | 1016.4 |
| 20260906120205 | 20 | 0 | 0.0 | 4.8 | 0.00 | 0.00 | 0.00 | 99 | 1016.5 |
| 20260906115705 | 20 | 0 | 0.0 | 1.6 | 0.00 | 0.00 | 0.00 | 99 | 1016.5 |
| 20260906115205 | 20 | 0 | 0.0 | 3.2 | 0.00 | 0.00 | 0.00 | 99 | 1016.2 |
| 20260906114705 | 20 | 0 | 0.0 | 4.8 | 0.00 | 0.00 | 0.00 | 99 | 1016.3 |
| 20260906114205 | 20 | 0 | 0.0 | 4.8 | 0.00 | 0.00 | 0.00 | 99 | 1016.3 |
| 20260906113622 | 20 | 0 | 0.0 | 0.0 | 0.00 | 0.00 | 0.00 | 99 | 1016.4 |
| 20260906113035 | 20 | 0 | 0.0 | 6.4 | 0.00 | 0.00 | 0.00 | 99 | 1016.2 |
| 20260906112059 | 20 | 337 | 1.6 | 12.9 | 0.00 | 0.00 | 0.00 | 99 | 1015.9 |
| 20260906111600 | 20 | 337 | 1.6 | 12.9 | 0.00 | 0.00 | 0.00 | 99 | 1016.7 |
| 20260906111059 | 20 | 337 | 6.4 | 12.9 | 0.00 | 0.00 | 0.00 | 99 | 1016.6 |
| 20260906110559 | 20 | 337 | 1.6 | 8.0 | 0.00 | 0.00 | 0.00 | 99 | 1016.6 |
| 20260906110059 | 20 | 0 | 0.0 | 9.7 | 0.00 | 0.00 | 0.00 | 99 | 1016.5 |
| 20260906105600 | 20 | 337 | 3.2 | 9.7 | 0.00 | 0.00 | 0.00 | 99 | 1016.6 |
| 20260906105100 | 20 | 337 | 3.2 | 9.7 | 0.00 | 0.00 | 0.00 | 99 | 1016.5 |
| 20260906104559 | 20 | 337 | 1.6 | 6.4 | 0.00 | 0.00 | 0.00 | 99 | 1016.4 |
| 20260906104059 | 20 | 0 | 0.0 | 4.8 | 0.00 | 0.00 | 0.00 | 99 | 1016.5 |
| 20260906103559 | 20 | 0 | 0.0 | 0.0 | 0.00 | 0.00 | 0.00 | 99 | 1016.4 |
| 20260906103059 | 20 | 0 | 0.0 | 0.0 | 0.00 | 0.00 | 0.00 | 99 | 1016.4 |
| 20260906102559 | 20 | 0 | 0.0 | 0.0 | 0.00 | 0.00 | 0.00 | 99 | 1016.4 |
| 20260906102059 | 20 | 0 | 0.0 | 0.0 | 0.00 | 0.00 | 0.00 | 99 | 1016.4 |
| 20260906101559 | 20 | 0 | 0.0 | 0.0 | 0.00 | 0.00 | 0.00 | 99 | 1016.5 |
| 20260906101059 | 20 | 0 | 0.0 | 0.0 | 0.00 | 0.00 | 0.00 | 99 | 1016.3 |
| 20260906100559 | 20 | 0 | 0.0 | 0.0 | 0.00 | 0.00 | 0.00 | 99 | 1016.2 |
| 20260906100059 | 20 | 0 | 0.0 | 4.8 | 0.00 | 0.00 | 0.00 | 99 | 1016.1 |
| 20260906095559 | 20 | 0 | 0.0 | 4.8 | 0.00 | 0.00 | 0.00 | 99 | 1016.0 |
| 20260906095059 | 20 | 0 | 0.0 | 4.8 | 0.00 | 0.00 | 0.00 | 99 | 1015.9 |
| 20260906094600 | 20 | 0 | 0.0 | 3.2 | 0.00 | 0.00 | 0.00 | 99 | 1015.8 |
| 20260906094059 | 20 | 0 | 0.0 | 3.2 | 0.00 | 0.00 | 0.00 | 99 | 1015.8 |
| 20260906093559 | 20 | 0 | 0.0 | 0.0 | 0.00 | 0.00 | 0.00 | 99 | 1015.8 |
| 20260906093059 | 20 | 0 | 0.0 | 3.2 | 0.00 | 0.00 | 0.00 | 99 | 1015.8 |
| 20260906092559 | 20 | 0 | 0.0 | 4.8 | 0.00 | 0.00 | 0.00 | 99 | 1015.7 |
| 20260906092059 | 20 | 0 | 0.0 | 8.0 | 0.00 | 0.00 | 0.00 | 99 | 1015.8 |
| 20260906091600 | 20 | 0 | 0.0 | 8.0 | 0.00 | 0.00 | 0.00 | 99 | 1015.8 |
| 20260906091059 | 20 | 0 | 0.0 | 9.7 | 0.00 | 0.00 | 0.00 | 99 | 1015.6 |
| 20260906090559 | 20 | 334 | 1.6 | 9.7 | 0.00 | 0.00 | 0.00 | 99 | 1015.5 |
| 20260906090059 | 20 | 334 | 1.6 | 8.0 | 0.00 | 0.00 | 0.00 | 99 | 1015.5 |
| 20260906085600 | 20 | 334 | 1.6 | 8.0 | 0.00 | 0.00 | 0.00 | 99 | 1015.5 |
| 20260906085100 | 20 | 334 | 1.6 | 9.7 | 0.00 | 0.00 | 0.00 | 99 | 1015.4 |
| 20260906084601 | 20 | 334 | 4.8 | 9.7 | 0.00 | 0.00 | 0.00 | 99 | 1015.2 |
| 20260906084100 | 20 | 334 | 4.8 | 9.7 | 0.00 | 0.00 | 0.00 | 99 | 1015.2 |
| 20260906083559 | 20 | 334 | 4.8 | 9.7 | 0.00 | 0.00 | 0.00 | 99 | 1015.2 |
| 20260906083059 | 20 | 334 | 4.8 | 9.7 | 0.00 | 0.00 | 0.00 | 99 | 1015.0 |
| 20260906082559 | 20 | 334 | 3.2 | 9.7 | 0.00 | 0.00 | 0.00 | 99 | 1015.0 |
| 20260906082059 | 20 | 335 | 4.8 | 9.7 | 0.00 | 0.00 | 0.00 | 99 | 1015.2 |
| 20260906081559 | 20 | 335 | 4.8 | 8.0 | 0.00 | 0.00 | 0.00 | 98 | 1015.2 |
| 20260906081101 | 20 | 335 | 3.2 | 8.0 | 0.00 | 0.00 | 0.00 | 98 | 1015.2 |
| 20260906080602 | 20 | 335 | 4.8 | 8.0 | 0.00 | 0.00 | 0.00 | 98 | 1015.2 |
| 20260906080059 | 20 | 335 | 3.2 | 8.0 | 0.00 | 0.00 | 0.00 | 98 | 1015.1 |
| 20260906075559 | 20 | 335 | 1.6 | 8.0 | 0.00 | 0.00 | 0.00 | 98 | 1015.2 |
| 20260906075059 | 20 | 335 | 1.6 | 6.4 | 0.00 | 0.00 | 0.00 | 98 | 1015.2 |
| 20260906074559 | 20 | 335 | 3.2 | 8.0 | 0.00 | 0.00 | 0.00 | 98 | 1015.2 |
| 20260906074059 | 20 | 335 | 3.2 | 9.7 | 0.00 | 0.00 | 0.00 | 98 | 1015.2 |
| 20260906073559 | 20 | 335 | 4.8 | 9.7 | 0.00 | 0.00 | 0.00 | 98 | 1015.1 |
| 20260906073030 | 20 | 334 | 4.8 | 12.9 | 0.00 | 0.00 | 0.00 | 98 | 1015.1 |
| 20260906072531 | 20 | 334 | 6.4 | 12.9 | 0.00 | 0.00 | 0.00 | 97 | 1015.2 |
| 20260906072032 | 20 | 334 | 6.4 | 14.5 | 0.00 | 0.00 | 0.00 | 97 | 1015.2 |
| 20260906071531 | 20 | 334 | 8.0 | 16.1 | 0.00 | 0.00 | 0.00 | 97 | 1015.4 |
| 20260906071032 | 20 | 333 | 8.0 | 16.1 | 0.00 | 0.00 | 0.00 | 96 | 1015.5 |
| 20260906070532 | 20 | 333 | 6.4 | 12.9 | 0.00 | 0.00 | 0.00 | 95 | 1015.5 |
| 20260906070152 | 21 | 333 | 4.8 | 12.9 | 0.00 | 0.00 | 0.00 | 93 | 1015.4 |
| 20260906070032 | 21 | 333 | 4.8 | 12.9 | 0.00 | 0.00 | 0.00 | 93 | 1015.4 |
| 20260906065534 | 21 | 335 | 6.4 | 9.7 | 0.00 | 0.00 | 0.00 | 90 | 1015.6 |
| 20260906065030 | 21 | 335 | 3.2 | 8.0 | 0.00 | 0.00 | 0.00 | 89 | 1015.6 |
| 20260906064531 | 22 | 335 | 1.6 | 8.0 | 0.00 | 0.00 | 0.00 | 88 | 1015.7 |
| 20260906064030 | 22 | 335 | 1.6 | 8.0 | 0.00 | 0.00 | 0.00 | 88 | 1015.6 |
| 20260906063531 | 21 | 335 | 3.2 | 8.0 | 0.00 | 0.00 | 0.00 | 88 | 1015.8 |
| 20260906063030 | 21 | 335 | 3.2 | 6.4 | 0.00 | 0.00 | 0.00 | 88 | 1015.8 |
| 20260906062530 | 21 | 335 | 1.6 | 6.4 | 0.00 | 0.00 | 0.00 | 88 | 1015.8 |
| 20260906062030 | 22 | 335 | 1.6 | 8.0 | 0.00 | 0.00 | 0.00 | 87 | 1015.8 |
| 20260906061531 | 22 | 335 | 1.6 | 8.0 | 0.00 | 0.00 | 0.00 | 87 | 1015.7 |
| 20260906061030 | 22 | 335 | 3.2 | 6.4 | 0.00 | 0.00 | 0.00 | 86 | 1015.7 |
| 20260906060531 | 22 | 335 | 3.2 | 8.0 | 0.00 | 0.00 | 0.00 | 86 | 1015.7 |
| 20260906060030 | 22 | 335 | 1.6 | 8.0 | 0.00 | 0.00 | 0.00 | 85 | 1015.7 |
| 20260906055530 | 22 | 335 | 1.6 | 8.0 | 0.00 | 0.00 | 0.00 | 85 | 1015.7 |
| 20260906055030 | 22 | 335 | 1.6 | 8.0 | 0.00 | 0.00 | 0.00 | 85 | 1015.7 |
| 20260906054531 | 22 | 335 | 4.8 | 12.9 | 0.00 | 0.00 | 0.00 | 85 | 1015.8 |
| 20260906054031 | 22 | 335 | 6.4 | 12.9 | 0.00 | 0.00 | 0.00 | 85 | 1015.7 |
| 20260906053531 | 22 | 335 | 4.8 | 9.7 | 0.00 | 0.00 | 0.00 | 85 | 1015.8 |
| 20260906053031 | 22 | 335 | 4.8 | 8.0 | 0.00 | 0.00 | 0.00 | 84 | 1015.9 |
| 20260906052531 | 22 | 335 | 4.8 | 9.7 | 0.00 | 0.00 | 0.00 | 84 | 1015.9 |
| 20260906052030 | 22 | 335 | 4.8 | 9.7 | 0.00 | 0.00 | 0.00 | 85 | 1015.9 |
| 20260906051530 | 22 | 335 | 3.2 | 8.0 | 0.00 | 0.00 | 0.00 | 86 | 1016.0 |
| 20260906051030 | 22 | 335 | 4.8 | 9.7 | 0.00 | 0.00 | 0.00 | 85 | 1016.0 |
| 20260906050530 | 22 | 335 | 6.4 | 9.7 | 0.00 | 0.00 | 0.00 | 84 | 1015.9 |
| 20260906050030 | 22 | 335 | 6.4 | 9.7 | 0.00 | 0.00 | 0.00 | 84 | 1015.9 |
| 20260906045532 | 22 | 335 | 6.4 | 9.7 | 0.00 | 0.00 | 0.00 | 83 | 1016.0 |
| 20260906045030 | 22 | 335 | 4.8 | 12.9 | 0.00 | 0.00 | 0.00 | 82 | 1016.1 |
| 20260906044533 | 22 | 335 | 6.4 | 12.9 | 0.00 | 0.00 | 0.00 | 81 | 1016.1 |
| 20260906044030 | 22 | 335 | 4.8 | 12.9 | 0.00 | 0.00 | 0.00 | 81 | 1016.0 |
| 20260906043531 | 22 | 335 | 4.8 | 12.9 | 0.00 | 0.00 | 0.00 | 81 | 1016.0 |
| 20260906043030 | 22 | 335 | 4.8 | 9.7 | 0.00 | 0.00 | 0.00 | 82 | 1016.1 |
| 20260906042454 | 22 | 335 | 6.4 | 9.7 | 0.00 | 0.00 | 0.00 | 83 | 1016.0 |
| 20260906042321 | 22 | 335 | 6.4 | 9.7 | 0.00 | 0.00 | 0.00 | 83 | 1016.0 |
| 20260906041821 | 22 | 335 | 4.8 | 9.7 | 0.00 | 0.00 | 0.00 | 84 | 1016.1 |
| 20260906041321 | 22 | 335 | 3.2 | 6.4 | 0.00 | 0.00 | 0.00 | 84 | 1016.2 |
| 20260906040822 | 22 | 335 | 1.6 | 6.4 | 0.00 | 0.00 | 0.00 | 83 | 1016.3 |
| 20260906040321 | 22 | 335 | 1.6 | 8.0 | 0.00 | 0.00 | 0.00 | 83 | 1016.3 |
| 20260906035821 | 23 | 335 | 1.6 | 16.1 | 0.00 | 0.00 | 0.00 | 82 | 1016.2 |
| 20260906035321 | 23 | 333 | 4.8 | 16.1 | 0.00 | 0.00 | 0.00 | 81 | 1016.2 |
| 20260906034821 | 23 | 333 | 3.2 | 14.5 | 0.00 | 0.00 | 0.00 | 81 | 1016.0 |
| 20260906034321 | 23 | 333 | 4.8 | 12.9 | 0.00 | 0.00 | 0.00 | 81 | 1016.1 |
| 20260906033821 | 23 | 333 | 4.8 | 12.9 | 0.00 | 0.00 | 0.00 | 81 | 1016.1 |
| 20260906033131 | 23 | 334 | 3.2 | 14.5 | 0.00 | 0.00 | 0.00 | 81 | 1016.2 |
| 20260906032630 | 23 | 335 | 3.2 | 12.9 | 0.00 | 0.00 | 0.00 | 81 | 1016.1 |
| 20260906032130 | 23 | 335 | 3.2 | 12.9 | 0.00 | 0.00 | 0.00 | 81 | 1016.2 |
| 20260906031631 | 23 | 335 | 3.2 | 9.7 | 0.00 | 0.00 | 0.00 | 81 | 1016.2 |
| 20260906031132 | 23 | 335 | 1.6 | 9.7 | 0.00 | 0.00 | 0.00 | 81 | 1016.1 |
| 20260906030630 | 23 | 0 | 0.0 | 8.0 | 0.00 | 0.00 | 0.00 | 81 | 1016.1 |
| 20260906030131 | 23 | 0 | 0.0 | 8.0 | 0.00 | 0.00 | 0.00 | 81 | 1016.1 |
| 20260906025630 | 23 | 335 | 1.6 | 9.7 | 0.00 | 0.00 | 0.00 | 81 | 1016.0 |
| 20260906025130 | 23 | 335 | 1.6 | 14.5 | 0.00 | 0.00 | 0.00 | 80 | 1016.1 |
| 20260906024630 | 23 | 334 | 3.2 | 14.5 | 0.00 | 0.00 | 0.00 | 79 | 1016.0 |
| 20260906023740 | 23 | 329 | 3.2 | 12.9 | 0.00 | 0.00 | 0.00 | 80 | 1016.1 |
| 20260906023413 | 23 | 328 | 1.6 | 8.0 | 0.00 | 0.00 | 0.00 | 80 | 1016.2 |
| 20260906023240 | 23 | 328 | 3.2 | 8.0 | 0.00 | 0.00 | 0.00 | 81 | 1016.2 |
| 20260906022743 | 23 | 328 | 1.6 | 8.0 | 0.00 | 0.00 | 0.00 | 80 | 1016.2 |
| 20260906022240 | 23 | 328 | 1.6 | 8.0 | 0.00 | 0.00 | 0.00 | 80 | 1016.3 |
| 20260906021740 | 24 | 0 | 0.0 | 8.0 | 0.00 | 0.00 | 0.00 | 80 | 1016.2 |
| 20260906021240 | 24 | 0 | 0.0 | 4.8 | 0.00 | 0.00 | 0.00 | 79 | 1016.1 |
| 20260906020740 | 24 | 0 | 0.0 | 9.7 | 0.00 | 0.00 | 0.00 | 79 | 1016.0 |
| 20260906020240 | 24 | 329 | 1.6 | 9.7 | 0.00 | 0.00 | 0.00 | 79 | 1015.9 |
| 20260906015740 | 24 | 329 | 1.6 | 8.0 | 0.00 | 0.00 | 0.00 | 79 | 1015.9 |
| 20260906015240 | 24 | 0 | 0.0 | 8.0 | 0.00 | 0.00 | 0.00 | 79 | 1015.9 |
| 20260906014741 | 24 | 329 | 1.6 | 9.7 | 0.00 | 0.00 | 0.00 | 79 | 1015.9 |
| 20260906014240 | 24 | 329 | 1.6 | 9.7 | 0.00 | 0.00 | 0.00 | 79 | 1015.8 |
| 20260906013740 | 24 | 0 | 0.0 | 9.7 | 0.00 | 0.00 | 0.00 | 79 | 1015.9 |
| 20260906013240 | 24 | 0 | 0.0 | 8.0 | 0.00 | 0.00 | 0.00 | 79 | 1016.0 |
| 20260906012823 | 24 | 0 | 0.0 | 8.0 | 0.00 | 0.00 | 0.00 | 79 | 1016.0 |
| 20260906012740 | 24 | 0 | 0.0 | 8.0 | 0.00 | 0.00 | 0.00 | 79 | 1016.0 |
| 20260906012240 | 24 | 331 | 1.6 | 8.0 | 0.00 | 0.00 | 0.00 | 79 | 1015.9 |
| 20260906011740 | 24 | 331 | 1.6 | 9.7 | 0.00 | 0.00 | 0.00 | 79 | 1015.7 |
| 20260906011240 | 24 | 331 | 3.2 | 9.7 | 0.00 | 0.00 | 0.00 | 79 | 1015.6 |
| 20260906010740 | 24 | 331 | 3.2 | 9.7 | 0.00 | 0.00 | 0.00 | 79 | 1015.5 |
| 20260906010240 | 24 | 331 | 3.2 | 6.4 | 0.00 | 0.00 | 0.00 | 79 | 1015.5 |
| 20260906005740 | 24 | 331 | 1.6 | 6.4 | 0.00 | 0.00 | 0.00 | 78 | 1015.4 |
| 20260906005240 | 25 | 331 | 3.2 | 9.7 | 0.00 | 0.00 | 0.00 | 78 | 1015.5 |
| 20260906004740 | 25 | 331 | 3.2 | 9.7 | 0.00 | 0.00 | 0.00 | 78 | 1015.4 |
| 20260906004240 | 25 | 0 | 0.0 | 8.0 | 0.00 | 0.00 | 0.00 | 77 | 1015.5 |
| 20260906003740 | 25 | 0 | 0.0 | 6.4 | 0.00 | 0.00 | 0.00 | 76 | 1015.4 |
| 20260906003240 | 25 | 331 | 1.6 | 6.4 | 0.00 | 0.00 | 0.00 | 76 | 1015.4 |
| 20260906002740 | 25 | 331 | 1.6 | 8.0 | 0.00 | 0.00 | 0.00 | 76 | 1015.3 |
| 20260906002240 | 25 | 331 | 3.2 | 8.0 | 0.00 | 0.00 | 0.00 | 76 | 1015.2 |
| 20260906001742 | 24 | 331 | 1.6 | 6.4 | 0.00 | 0.00 | 0.00 | 76 | 1015.1 |
| 20260906001242 | 24 | 331 | 1.6 | 9.7 | 0.00 | 0.00 | 0.00 | 76 | 1015.1 |
| 20260906000740 | 25 | 0 | 0.0 | 9.7 | 0.00 | 0.00 | 0.00 | 76 | 1015.1 |
| 20260906000241 | 25 | 0 | 0.0 | 4.8 | 0.00 | 0.00 | 0.00 | 75 | 1015.0 |
| 20260905235740 | 25 | 0 | 0.0 | 4.8 | 0.00 | 0.00 | 0.00 | 75 | 1015.0 |
| 20260905235240 | 25 | 0 | 0.0 | 4.8 | 0.00 | 0.00 | 0.00 | 75 | 1014.9 |
| 20260905234741 | 25 | 0 | 0.0 | 4.8 | 0.00 | 0.00 | 0.00 | 74 | 1014.9 |
| 20260905234243 | 25 | 0 | 0.0 | 6.4 | 0.00 | 0.00 | 0.00 | 74 | 1014.9 |
| 20260905233740 | 25 | 331 | 1.6 | 8.0 | 0.00 | 0.00 | 0.00 | 74 | 1014.8 |
| 20260905233240 | 25 | 0 | 0.0 | 8.0 | 0.00 | 0.00 | 0.00 | 73 | 1014.9 |
| 20260905232740 | 25 | 331 | 1.6 | 14.5 | 0.00 | 0.00 | 0.00 | 73 | 1014.8 |
| 20260905232240 | 25 | 0 | 0.0 | 14.5 | 0.00 | 0.00 | 0.00 | 73 | 1014.6 |
| 20260905231739 | 25 | 0 | 0.0 | 12.9 | 0.00 | 0.00 | 0.00 | 73 | 1014.6 |
| 20260905231241 | 25 | 329 | 1.6 | 12.9 | 0.00 | 0.00 | 0.00 | 73 | 1014.5 |
| 20260905230741 | 25 | 0 | 0.0 | 8.0 | 0.00 | 0.00 | 0.00 | 72 | 1014.6 |
| 20260905230241 | 26 | 0 | 0.0 | 6.4 | 0.00 | 0.00 | 0.00 | 72 | 1014.7 |
| 20260905225740 | 26 | 0 | 0.0 | 6.4 | 0.00 | 0.00 | 0.00 | 72 | 1014.7 |
| 20260905225240 | 26 | 0 | 0.0 | 3.2 | 0.00 | 0.00 | 0.00 | 72 | 1014.7 |
| 20260905224740 | 26 | 0 | 0.0 | 4.8 | 0.00 | 0.00 | 0.00 | 72 | 1014.8 |
| 20260905224240 | 26 | 0 | 0.0 | 4.8 | 0.00 | 0.00 | 0.00 | 72 | 1014.8 |
| 20260905223740 | 26 | 0 | 0.0 | 14.5 | 0.00 | 0.00 | 0.00 | 72 | 1014.8 |
| 20260905223240 | 26 | 325 | 1.6 | 14.5 | 0.00 | 0.00 | 0.00 | 72 | 1014.8 |
| 20260905222740 | 26 | 0 | 0.0 | 12.9 | 0.00 | 0.00 | 0.00 | 72 | 1014.8 |
| 20260905222246 | 26 | 324 | 1.6 | 12.9 | 0.00 | 0.00 | 0.00 | 72 | 1014.9 |
| 20260905221740 | 26 | 0 | 0.0 | 12.9 | 0.00 | 0.00 | 0.00 | 72 | 1014.9 |
| 20260905221240 | 26 | 0 | 0.0 | 12.9 | 0.00 | 0.00 | 0.00 | 71 | 1014.9 |
| 20260905220740 | 26 | 0 | 0.0 | 12.9 | 0.00 | 0.00 | 0.00 | 71 | 1015.0 |
| 20260905220240 | 26 | 0 | 0.0 | 12.9 | 0.00 | 0.00 | 0.00 | 70 | 1015.0 |
| 20260905215740 | 26 | 0 | 0.0 | 9.7 | 0.00 | 0.00 | 0.00 | 71 | 1014.9 |
| 20260905215240 | 26 | 310 | 1.6 | 8.0 | 0.00 | 0.00 | 0.00 | 70 | 1014.9 |
| 20260905214742 | 25 | 308 | 1.6 | 8.0 | 0.00 | 0.00 | 0.00 | 71 | 1014.9 |
| 20260905214240 | 25 | 307 | 1.6 | 8.0 | 0.00 | 0.00 | 0.00 | 71 | 1015.0 |
| 20260905213740 | 25 | 305 | 1.6 | 8.0 | 0.00 | 0.00 | 0.00 | 71 | 1015.0 |
| 20260905213239 | 25 | 0 | 0.0 | 11.3 | 0.00 | 0.00 | 0.00 | 70 | 1015.0 |
| 20260905212740 | 25 | 0 | 0.0 | 11.3 | 0.00 | 0.00 | 0.00 | 69 | 1015.1 |
| 20260905212240 | 25 | 0 | 0.0 | 9.7 | 0.00 | 0.00 | 0.00 | 69 | 1015.1 |
| 20260905211740 | 25 | 316 | 1.6 | 12.9 | 0.00 | 0.00 | 0.00 | 68 | 1015.1 |
| 20260905211240 | 25 | 315 | 1.6 | 12.9 | 0.00 | 0.00 | 0.00 | 68 | 1015.0 |
| 20260905210740 | 25 | 313 | 1.6 | 12.9 | 0.00 | 0.00 | 0.00 | 68 | 1015.0 |
| 20260905210240 | 26 | 312 | 3.2 | 12.9 | 0.00 | 0.00 | 0.00 | 68 | 1014.9 |
| 20260905205739 | 26 | 311 | 1.6 | 14.5 | 0.00 | 0.00 | 0.00 | 67 | 1014.8 |
| 20260905205241 | 26 | 309 | 3.2 | 14.5 | 0.00 | 0.00 | 0.00 | 66 | 1014.7 |
| 20260905204741 | 25 | 302 | 3.2 | 12.9 | 0.00 | 0.00 | 0.00 | 67 | 1014.7 |
| 20260905204239 | 26 | 294 | 1.6 | 11.3 | 0.00 | 0.00 | 0.00 | 67 | 1014.8 |
| 20260905203740 | 26 | 291 | 3.2 | 11.3 | 0.00 | 0.00 | 0.00 | 65 | 1014.8 |
| 20260905203240 | 26 | 289 | 1.6 | 8.0 | 0.00 | 0.00 | 0.00 | 65 | 1014.7 |
| 20260905202739 | 26 | 287 | 1.6 | 8.0 | 0.00 | 0.00 | 0.00 | 64 | 1014.7 |
| 20260905202240 | 26 | 283 | 1.6 | 8.0 | 0.00 | 0.00 | 0.00 | 64 | 1014.8 |
| 20260905201742 | 26 | 299 | 1.6 | 12.9 | 0.00 | 0.00 | 0.00 | 65 | 1014.8 |
| 20260905201241 | 26 | 300 | 3.2 | 12.9 | 0.00 | 0.00 | 0.00 | 65 | 1014.8 |
| 20260905200740 | 26 | 287 | 1.6 | 9.7 | 0.00 | 0.00 | 0.00 | 66 | 1014.9 |
| 20260905200239 | 26 | 0 | 0.0 | 8.0 | 0.00 | 0.00 | 0.00 | 65 | 1014.8 |
| 20260905195739 | 26 | 344 | 3.2 | 8.0 | 0.00 | 0.00 | 0.00 | 64 | 1014.8 |
| 20260905195719 | 26 | 0 | 0.0 | 6.4 | 0.00 | 0.00 | 0.00 | 65 | 1014.9 |
| 20260905195239 | 26 | 0 | 0.0 | 6.4 | 0.00 | 0.00 | 0.00 | 65 | 1014.9 |
| 20260905194741 | 26 | 0 | 0.0 | 6.4 | 0.00 | 0.00 | 0.00 | 63 | 1015.0 |
| 20260905194250 | 26 | 0 | 0.0 | 4.8 | 0.00 | 0.00 | 0.00 | 69 | 1015.0 |
| 20260905193855 | 26 | 0 | 0.0 | 4.8 | 0.00 | 0.00 | 0.00 | 69 | 1015.0 |
| 20260905193355 | 26 | 344 | 1.6 | 8.0 | 0.00 | 0.00 | 0.00 | 70 | 1014.4 |
| 20260905192855 | 26 | 0 | 0.0 | 8.0 | 0.00 | 0.00 | 0.00 | 69 | 1014.4 |
| 20260905192355 | 25 | 0 | 0.0 | 8.0 | 0.00 | 0.00 | 0.00 | 69 | 1014.5 |
| 20260905191855 | 25 | 344 | 1.6 | 14.5 | 0.00 | 0.00 | 0.00 | 70 | 1014.6 |
| 20260905191409 | 25 | 344 | 1.6 | 14.5 | 0.00 | 0.00 | 0.00 | 72 | 1014.8 |
| 20260905190855 | 24 | 0 | 0.0 | 14.5 | 0.00 | 0.00 | 0.00 | 74 | 1014.7 |
| 20260905190355 | 24 | 340 | 4.8 | 14.5 | 0.00 | 0.00 | 0.00 | 73 | 1014.7 |
| 20260905185855 | 24 | 338 | 1.6 | 8.0 | 0.00 | 0.00 | 0.00 | 72 | 1014.8 |
| 20260905185355 | 24 | 0 | 0.0 | 9.7 | 0.00 | 0.00 | 0.00 | 70 | 1014.4 |
| 20260905184855 | 23 | 339 | 1.6 | 9.7 | 0.00 | 0.00 | 0.00 | 75 | 1014.0 |
| 20260905184358 | 23 | 339 | 4.8 | 9.7 | 0.00 | 0.00 | 0.00 | 74 | 1013.7 |
| 20260905183855 | 23 | 339 | 4.8 | 12.9 | 0.00 | 0.00 | 0.00 | 78 | 1013.8 |
| 20260905183355 | 24 | 340 | 6.4 | 12.9 | 0.00 | 0.00 | 0.00 | 78 | 1013.8 |
| 20260905182855 | 24 | 340 | 3.2 | 14.5 | 0.00 | 0.00 | 0.00 | 76 | 1014.3 |
| 20260905182355 | 25 | 335 | 6.4 | 19.3 | 0.00 | 0.00 | 0.00 | 74 | 1014.4 |
| 20260905181855 | 25 | 332 | 11.3 | 19.3 | 0.00 | 0.00 | 0.00 | 72 | 1014.5 |
| 20260905181355 | 25 | 344 | 4.8 | 16.1 | 0.00 | 0.00 | 0.00 | 71 | 1014.7 |
| 20260905180855 | 25 | 0 | 0.0 | 16.1 | 0.00 | 0.00 | 0.00 | 72 | 1014.9 |
| 20260905180356 | 25 | 318 | 4.8 | 16.1 | 0.00 | 0.00 | 0.00 | 73 | 1015.3 |
| 20260905175855 | 25 | 327 | 3.2 | 14.5 | 0.00 | 0.00 | 0.00 | 73 | 1015.6 |
| 20260905175355 | 25 | 326 | 6.4 | 22.5 | 0.00 | 0.00 | 0.00 | 71 | 1015.7 |
| 20260905174855 | 26 | 321 | 6.4 | 22.5 | 0.00 | 0.00 | 0.00 | 70 | 1015.8 |